EST,Max TemperatureF,Mean TemperatureF,Min TemperatureF,Max Dew PointF,MeanDew PointF,Min DewpointF,Max Humidity, Mean Humidity, Min Humidity, Max Sea Level PressureIn, Mean Sea Level PressureIn, Min Sea Level PressureIn, Max VisibilityMiles, Mean VisibilityMiles, Min VisibilityMiles, Max Wind SpeedMPH, Mean Wind SpeedMPH, Max Gust SpeedMPH,PrecipitationIn, CloudCover, Events, WindDirDegrees
2013-1-1,30,21,12,23,8,-2,88,55,31,29.88,29.74,29.62,10,10,10,12,3,23,0.00,2,,285
2013-1-2,21,10,-2,1,-6,-11,80,55,36,30.05,29.93,29.85,10,10,10,9,4,25,0.00,0,,300
2013-1-3,21,10,-2,2,-5,-11,76,56,34,30.11,30.04,29.96,10,10,10,9,1,,0.00,1,,290
2013-1-4,34,16,-2,22,11,-8,81,69,59,29.93,29.81,29.73,10,10,7,13,2,21,0.00,3,,234
2013-1-5,36,23,10,23,13,6,84,57,34,30.27,30.05,29.74,10,10,10,13,4,26,0.00,2,,275
2013-1-6,32,20,9,22,17,5,86,79,59,30.24,30.03,29.93,10,8,0,6,1,,0.02,5,Fog-Snow,263
2013-1-7,27,18,10,23,14,6,86,74,49,30.42,30.22,29.96,10,9,2,7,2,,0.00,5,Snow,33
2013-1-8,41,24,7,26,16,1,85,70,45,30.36,30.27,30.20,10,10,9,13,2,21,0.00,0,,228
2013-1-9,39,26,12,32,22,8,88,79,67,30.42,30.21,29.88,10,9,7,8,1,,0.00,3,,220
2013-1-10,44,34,24,30,22,18,85,56,40,30.53,30.24,29.91,10,10,10,13,6,33,0.00,1,,299
2013-1-11,36,26,17,29,20,14,88,72,43,30.55,30.41,30.26,10,10,10,4,0,,0.00,3,,70
2013-1-12,42,38,33,38,34,30,96,91,81,30.25,30.18,30.12,10,5,0,4,0,,0.01,8,Fog,170
2013-1-13,46,40,35,46,40,35,100,95,87,30.14,30.08,29.95,8,1,0,7,4,,0.02,8,Fog,217
2013-1-14,55,46,37,47,40,21,100,83,49,30.20,29.96,29.86,10,6,0,9,5,,0.01,5,Fog,221
2013-1-15,37,32,26,26,22,17,85,65,48,30.32,30.28,30.23,10,10,10,4,0,,0.00,5,,-1
2013-1-16,32,31,30,30,28,17,93,88,59,30.28,29.94,29.78,10,2,0,7,2,,0.01,8,Fog-Rain-Snow,51
2013-1-17,37,27,16,31,18,-4,100,74,41,30.15,29.90,29.78,10,7,0,10,2,21,0.32,2,Fog-Snow,260
2013-1-18,17,10,3,-2,-7,-16,76,49,26,30.42,30.30,30.14,10,10,8,9,2,18,0.00,1,,303
2013-1-19,37,22,8,27,19,3,82,66,50,30.36,30.09,29.88,10,9,2,14,4,28,0.07,7,Snow,235
2013-1-20,45,36,26,33,24,8,82,55,32,29.85,29.65,29.45,10,10,10,15,6,29,0.09,3,,229
2013-1-21,24,19,14,14,2,-7,74,47,25,30.06,29.97,29.86,10,9,2,10,4,17,0.00,3,Snow,325
2013-1-22,19,14,8,12,0,-17,74,57,31,30.04,29.87,29.78,10,9,2,10,5,16,0.00,5,Snow,355
2013-1-23,7,4,0,-15,-19,-21,43,36,28,30.10,30.06,30.03,10,10,10,12,5,22,0.00,0,,289
2013-1-24,10,3,-4,-12,-16,-19,51,40,26,30.11,30.03,29.94,10,10,10,10,6,26,0.00,0,,286
2013-1-25,19,10,0,2,-6,-13,69,50,30,30.21,30.15,30.08,10,10,10,10,4,22,0.00,1,,270
2013-1-26,21,14,7,-3,-6,-11,58,41,26,30.12,30.06,29.99,10,10,10,10,3,18,0.00,3,,320
2013-1-27,23,16,10,-3,-6,-9,51,40,27,30.42,30.30,30.13,10,10,10,9,5,22,0.00,0,,312
2013-1-28,26,14,3,18,10,-10,86,70,21,30.43,30.21,30.09,10,5,1,7,1,,0.00,6,Snow,198
2013-1-29,32,22,12,29,21,8,89,82,69,30.22,30.16,30.08,10,9,1,4,0,,0.15,6,Snow,50
2013-1-30,55,44,32,52,42,30,100,93,87,30.15,29.83,29.46,10,3,0,15,5,25,0.33,8,Fog-Rain,198
2013-1-31,54,42,30,52,37,9,94,70,35,29.44,29.15,28.86,10,8,2,17,13,36,0.08,6,Rain,218